Showing default

GLOBALSTAR M093, 39073

Orbit data source: Space-Track

GLOBALSTAR M093, 39073 is a payload satellite owned by Globalstar (US) in LEO that was launched on Wed, 06 Feb 2013 UTC via a SOYUZ-2-1A launch vehicle from the Tyuratam Missile And Space Complex (TTMTR). Payload-class satellites include a variety of spacecraft equipped with specific instruments for various scientific and technological missions. These include communications satellites like Starlink; space stations such as the ISS; scientific satellites like the Hubble; Earth observation satellites from companies like Planet Labs, Umbra, and HawkEye 360; GPS; miniature CubeSats for education and research; and military/defense satellites.

Loading next visibility...
Identifier
39073, 2013-005B
Orbit
LEO
Country
Flag of UnknownUnknown / GLOB
Related business
Manufacturer
Thales Alenia
Mission
Operational Commercial Communications
Bus & Motor
PRISMA?, LS-400 AOCS?
Mass
715 kg wet, ~500 kg dry
Launch date (UTC)
2013-02-06 (13 years ago)
Launch vehicle
SOYUZ-2-1A
Launch site
Tyuratam Missile And Space Complex (TTMTR)
Object type
Payload
Rocket body
Debris
Shape & HBR
Trap Cyl + 2 Pan, 6.0 m
Radar Cross Section
20.931 m², Large (>1 m²)

Expand to show TLE details & history
Last TLE update: 23 hours ago

TLE from 23 hours ago
0 GLOBALSTAR M093
1 39073U 13005B   25348.63737955 -.00000104  00000-0 -33036-5 0  9995
2 39073  52.0112  78.3980 0000327 115.6234 244.4667 12.62271105593551
Epoch: 2025-12-14T15:17Z
TLE epoch observation values (Epoch: 2025-12-14T15:17:49.593Z)
Latitude
0.00003°
Longitude
125.39395°
Altitude
1,414.377 km
Speed
7.154 km/s
True Right ascension
05h 13m 35s
True Declination
0° 00' 00"
Sunlit
Object was in full shadow at epoch
Visualization orbit readout
Latitude
Unknown
Longitude
Unknown
Altitude
Unknown
Speed
Unknown
Apparent Right ascension
Unknown
Apparent Declination
Unknown
Sunlit
N/A
Visualization observer readout
Local Sidereal Time
13:23:41
Azimuth
Unknown
Elevation
Unknown
Doppler factor
Unknown
Orbital elements
Apogee altitude
1,414.23 km
Perigee altitude
1,413.72 km
Semi-major axis
7,792.112 km
Eccentricity
0.00003
Inclination
52.0112°
RAAN
78.398°
Arg. of periapsis
115.6234°
True anomaly
244.46332°
Mean anomaly
244.4667°
Eccentric anomaly
244.46501°
Mean motion
3.15544 °/min
Orbital period
114.09 mins
BSTAR
-0.0000033036
Loading maneuver chart data...
Computing Atmospheric mass density...
Loading historical data...
Loading historical data...
Loading historical data...
Loading historical data...
Loading historical data...
Loading historical data...
Loading historical data...

Documentation

Showing up to 5 results
|